Current weather by "City, St" or "zip code"  
 

Current Conditions: Eureka Airport AWOS, NV

Fair


54.0 F

Last Updated on Oct 24 2020, 6:55 pm PDT
Humidity: 28%
Wind Speed: NW 11.5 mph
Barometer 29.91 in
Dewpoint: 21.2 F
Visibility: 10.00 mi
Precip: --
Heat Index: NA
Wind Chill: 51 F
Current conditions at:

Eureka Airport AWOS, NV (K05U)

Lat: 39.60209 Lon: 116.00625

Local Radar Image active severe weather and emergency alerts image image weather storm and storm spotter reports image weather observation monitoring service image
Local
Radar
Active
Alerts
Storm Reports Obs
Monitoring

Sign-up For Email & Text Message Weather Alert Notification Services



Advertise Here

Observation History for Eureka Airport AWOS, NV


Time Wind
(mph)
Vis
(mi)
Weather Precip (in) Temperature (F) Relative
Humidity
Wind
Chill
(F)
Heat
Index
(F)
Pressure
Air Dwpt altimeter
(in)
sea level
(mb)
Rmks
6:55 pm PDT NW 11.5 10.00 Fair -- 54.0 21.2 28% 51 NA 29.91 M
5:55 pm PDT W 8.1 10.00 Fair -- 59.0 19.4 21% 58 NA 29.91 M
4:55 pm PDT W 11.5 10.00 Fair -- 66.0 17.6 15% NA NA 29.92 M
3:55 pm PDT W 10.4 G 25.3 10.00 Fair -- 68.0 15.8 13% NA NA 29.92 M
2:55 pm PDT W 13.8 G 28.8 10.00 Fair -- 68.0 15.8 13% NA NA 29.94 M
1:55 pm PDT W 16.1 G 23.0 10.00 Fair -- 68.0 15.8 13% NA NA 29.97 M
12:55 pm PDT SW 17.3 G 24.2 10.00 Fair -- 66.0 14.0 13% NA NA 29.99 M
11:55 am PDT W 16.1 10.00 Fair -- 64.0 14.0 14% NA NA 30.02 M
10:55 am PDT W 11.5 10.00 Fair -- 61.0 15.8 17% 59 NA 30.05 M
9:55 am PDT N 0.0 10.00 Fair -- 57.0 14.0 18% NA NA 30.07 M
8:55 am PDT SW 4.6 10.00 Fair -- 45.0 14.0 29% 43 NA 30.07 M
7:55 am PDT S 9.2 10.00 Fair -- 36.0 12.2 38% 29 NA 30.06 M
6:55 am PDT N 0.0 10.00 Fair -- 25.0 8.6 50% NA NA 30.07 M
5:55 am PDT N 0.0 10.00 Fair -- 27.0 10.4 50% NA NA 30.07 M
4:55 am PDT SW 9.2 10.00 Fair -- 28.0 8.6 43% 19 NA 30.08 M
3:55 am PDT N 0.0 10.00 Fair -- 27.0 8.6 46% NA NA 30.07 M
2:55 am PDT N 0.0 10.00 Fair -- 28.0 12.2 51% NA NA 30.08 M
1:55 am PDT S 4.6 G 11.5 10.00 Fair -- 34.0 12.2 41% 30 NA 30.09 M
12:55 am PDT S 4.6 10.00 Fair -- 32.0 10.4 40% 27 NA 30.10 M
11:55 pm PDT N 0.0 10.00 Fair -- 37.0 10.4 33% NA NA 30.11 M
10:55 pm PDT N 0.0 10.00 Fair -- 34.0 10.4 38% NA NA 30.12 M
9:55 pm PDT S 5.8 10.00 Fair -- 32.0 6.8 34% 26 NA 30.10 M
8:55 pm PDT N 0.0 10.00 Fair -- 34.0 6.8 32% NA NA 30.10 M
7:55 pm PDT N 0.0 10.00 Fair -- 34.0 5.0 29% NA NA 30.11 M

Regional Weather Observation


Elko, Elko Regional Airport, NV (KEKO)

Fair
53.0 F

Ely, Ely Airport, NV (KELY)

Fair
50.0 F

Winnemucca, Winnemucca Municipal Airport, NV (KWMC)

A Few Clouds
52.0 F

Wendover / Air Force Auxillary Field, UT (KENV)

A Few Clouds
56.0 F

Tonopah, Tonopah Airport, NV (KTPH)

Fair
54.0 F

Lovelock, Derby Field Airport, NV (KLOL)

Fair
60.0 F